EW7671 Weather Reports


time (UTC)temp
C
wind
direction
speed
KPH
gust
KPH
rain 1hr
cm
rain 24hr
cm
rain mn
cm
humidity
%
barometer
mb
20260906100056 23 161 0.0 0.0 0.00 0.00 0.00 39 1022.8
20260906094551 22 166 0.0 0.0 0.00 0.00 0.00 40 1022.9
20260906093058 22 158 0.0 0.0 0.00 0.00 0.00 42 1023.1
20260906091544 21 183 0.0 1.6 0.00 0.00 0.00 44 1023.4
20260906090039 20 179 0.0 1.6 0.00 0.00 0.00 47 1023.7
20260906084535 19 192 0.0 0.0 0.00 0.00 0.00 49 1024.0
20260906083030 17 196 0.0 0.0 0.00 0.00 0.00 38 1024.2
20260906081525 16 53 0.0 0.0 0.00 0.00 0.00 24 1024.2
20260906080021 15 53 0.0 0.0 0.00 0.00 0.00 8 1024.4
20260906074517 13 54 0.0 0.0 0.00 0.00 0.00 1 1024.6
20260906073018 12 54 0.0 0.0 0.00 0.00 0.00 1 1024.5
20260906071508 11 280 0.0 0.0 0.00 0.00 0.00 1 1024.6
20260906070003 10 280 0.0 0.0 0.00 0.00 0.00 1 1024.6
20260906064601 10 280 0.0 0.0 0.00 0.00 0.00 1 1024.8
20260906063056 10 280 0.0 0.0 0.00 0.00 0.00 1 1024.7
20260906061556 10 280 0.0 0.0 0.00 0.00 0.00 1 1024.6
20260906060047 10 280 0.0 0.0 0.00 0.00 0.00 1 1024.4
20260906054547 10 280 0.0 0.0 0.00 0.00 0.00 1 1024.2
20260906053043 10 280 0.0 0.0 0.00 0.00 0.00 1 1024.1
20260906051535 10 280 0.0 0.0 0.00 0.00 0.00 1 1024.1
20260906050029 10 280 0.0 0.0 0.00 0.00 0.00 1 1024.1
20260906044525 10 280 0.0 0.0 0.00 0.00 0.00 1 1023.8
20260906043021 10 280 0.0 0.0 0.00 0.00 0.00 1 1023.7
20260906041523 10 280 0.0 0.0 0.00 0.00 0.00 1 1023.7
20260906040012 10 280 0.0 0.0 0.00 0.00 0.00 1 1023.7
20260906034510 10 280 0.0 0.0 0.00 0.00 0.00 1 1023.6
20260906033003 10 280 0.0 0.0 0.00 0.00 0.00 1 1023.4
20260906031601 10 280 0.0 0.0 0.00 0.00 0.00 1 1023.4
20260906030054 11 280 0.0 0.0 0.00 0.00 0.00 1 1023.4
20260906024555 11 280 0.0 0.0 0.00 0.00 0.00 1 1023.5
20260906023046 11 279 0.0 0.0 0.00 0.00 0.00 1 1023.5
20260906021549 11 279 0.0 0.0 0.00 0.00 0.00 1 1023.4
20260906020048 11 279 0.0 0.0 0.00 0.00 0.00 1 1023.2
20260906014543 11 279 0.0 0.0 0.00 0.00 0.00 1 1023.2
20260906013033 11 279 0.0 0.0 0.00 0.00 0.00 1 1023.3
20260906011524 11 279 0.0 0.0 0.00 0.00 0.00 1 1023.3
20260906010019 11 279 0.0 0.0 0.00 0.00 0.00 1 1023.2
20260906004517 11 279 0.0 0.0 0.00 0.00 0.00 1 1023.2
20260906003011 11 279 0.0 0.0 0.00 0.00 0.00 1 1023.2
20260906001506 12 279 0.0 0.0 0.00 0.00 0.00 1 1023.2
20260906000002 12 279 0.0 0.0 0.00 0.00 0.00 1 1023.2
20260905234611 12 279 0.0 0.0 0.00 0.00 0.00 1 1023.1
20260905233053 12 279 0.0 0.0 0.00 0.00 0.00 1 1022.9
20260905231554 12 279 0.0 0.0 0.00 0.00 0.00 1 1022.9
20260905224539 12 279 0.0 0.0 0.00 0.00 0.00 1 1022.6
20260905223036 12 279 0.0 0.0 0.00 0.00 0.00 1 1022.6
20260905221534 12 279 0.0 0.0 0.00 0.00 0.00 1 1022.5
20260905220026 13 279 0.0 0.0 0.00 0.00 0.00 1 1022.3
20260905214525 13 279 0.0 0.0 0.00 0.00 0.00 1 1022.2
20260905213018 13 279 0.0 0.0 0.00 0.00 0.00 1 1022.1
20260905211521 13 279 0.0 0.0 0.00 0.00 0.00 5 1021.8
20260905210009 14 279 0.0 0.0 0.00 0.00 0.00 8 1021.8
20260905204504 15 279 0.0 0.0 0.00 0.00 0.00 9 1021.9
20260905203103 15 279 0.0 0.0 0.00 0.00 0.00 12 1021.7
20260905201556 15 279 0.0 0.0 0.00 0.00 0.00 11 1021.6
20260905200059 15 279 0.0 0.0 0.00 0.00 0.00 13 1021.3
20260905194547 15 279 0.0 0.0 0.00 0.00 0.00 15 1021.0
20260905193101 16 279 0.0 0.0 0.00 0.00 0.00 16 1020.7
20260905191542 16 279 0.0 0.0 0.00 0.00 0.00 25 1020.2
20260905190034 17 279 0.0 0.0 0.00 0.00 0.00 28 1020.0
20260905184529 17 279 0.0 0.0 0.00 0.00 0.00 33 1019.7
20260905183025 18 279 0.0 1.6 0.00 0.00 0.00 34 1019.4
20260905181521 18 279 0.0 0.0 0.00 0.00 0.00 30 1019.2
20260905180016 18 279 0.0 0.0 0.00 0.00 0.00 35 1019.0
20260905174510 19 279 0.0 0.0 0.00 0.00 0.00 38 1018.6
20260905173007 20 279 0.0 0.0 0.00 0.00 0.00 40 1018.2
20260905171503 20 279 0.0 0.0 0.00 0.00 0.00 46 1017.9
20260905170059 21 279 0.0 0.0 0.00 0.00 0.00 48 1017.7
20260905164554 21 279 0.0 0.0 0.00 0.00 0.00 48 1017.6
20260905163051 22 5 0.0 0.0 0.00 0.00 0.00 46 1017.4
20260905161545 23 13 0.0 3.2 0.00 0.00 0.00 37 1017.2
20260905160041 23 240 0.0 0.0 0.00 0.00 0.00 44 1017.1
20260905154620 25 153 0.0 0.0 0.00 0.00 0.00 38 1016.8
20260905153037 25 239 0.0 0.0 0.00 0.00 0.00 36 1016.8
20260905151534 25 155 0.0 4.8 0.00 0.00 0.00 36 1016.8
20260905150035 26 257 0.0 0.0 0.00 0.00 0.00 36 1016.8
20260905144524 25 130 0.0 1.6 0.00 0.00 0.00 36 1016.6
20260905143022 25 68 0.0 1.6 0.00 0.00 0.00 36 1016.8
20260905141516 25 192 0.0 3.2 0.00 0.00 0.00 37 1016.8
20260905140013 25 109 0.0 11.3 0.00 0.00 0.00 38 1017.0
20260905134507 25 216 0.0 3.2 0.00 0.00 0.00 37 1017.0
20260905133005 25 236 0.0 16.1 0.00 0.00 0.00 37 1017.1
20260905131558 25 219 0.0 4.8 0.00 0.00 0.00 36 1017.1
20260905130054 25 157 0.0 3.2 0.00 0.00 0.00 37 1016.8
20260905124549 25 212 0.0 0.0 0.00 0.00 0.00 36 1017.0
20260905123048 26 319 0.0 3.2 0.00 0.00 0.00 34 1017.1
20260905121540 26 326 0.0 1.6 0.00 0.00 0.00 34 1017.0
20260905120035 25 56 0.0 0.0 0.00 0.00 0.00 33 1017.2
20260905114531 25 42 0.0 9.7 0.00 0.00 0.00 35 1017.0
20260905113027 25 5 0.0 4.8 0.00 0.00 0.00 34 1017.1
20260905111522 26 216 0.0 0.0 0.00 0.00 0.00 32 1017.2
20260905110020 25 261 0.0 14.5 0.00 0.00 0.00 35 1016.9
20260905104514 25 53 0.0 1.6 0.00 0.00 0.00 36 1017.1
20260905103010 25 335 0.0 9.7 0.00 0.00 0.00 37 1017.1
20260905101505 25 38 0.0 0.0 0.00 0.00 0.00 38 1016.9